Location: Aix-en-Ergny
(50.5839°N, 1.9996°E)
Time: 00:39:59
(UTC+00:00)

COSMOS 2428 - Pass Details

Date: 23 October 2019
Orbit: 844 x 857 km, 70.9° (Epoch: 13 November)

Event Time Altitude Azimuth Distance (km) Brightness Sun altitude
Exits shadow 04:29:57 26° 304° (NW) 1,610 3.7 -19.2°
Maximum altitude 04:30:45 27° 318° (NW) 1,580 3.8 -19.1°
Drops below altitude 10° 04:35:32 10° 15° (NNE) 2,479 5.4 -18.3°
Sets 04:38:23 0° 28° (NNE) 3,419 6.3 -17.9°
